Flag for Montenegro Weather past 2 weeks in Nikšić, Montenegro

Now
43 °F

Overcast.


Feels Like: 40 °F
Forecast: 31 / 49 °F
Wind: 5 mph from South

Location: Niksic

Current Time: Mar 2, 2015 at 4:08:51 PM

Latest Report: Mar 2, 2015 at 3:00 PM


Visibility: 13 mi

Pressure: 30.05 "Hg

Humidity: 100%

Dew point: 43 °F

Location of NikšićLocation

Historic Weather in Nikšić — Graph

°F

Nikšić temperature yesterday

Maximum temperature yesterday: 49 °F (at 11:00 AM)
Minimum temperature yesterday: 36 °F (at 6:00 AM)
Average temperature yesterday: 43 °F

Past Weeks' High & Low Weather Summary

 TemperatureHumidityPressure
High56 °F (Feb 20, 2:00 PM)100% (Feb 16, 6:00 AM)30.61 "Hg (Feb 16, 6:00 AM)
Low25 °F (Feb 19, 6:00 AM)14% (Feb 20, 1:00 PM)29.61 "Hg (Feb 25, 1:00 PM)
Average41 °F79%30.04 "Hg
* Reported Feb 15 2:00 PM — Mar 2 2:00 PM, Nikšić, Weather by CustomWeather, © 2015

Note: Actual official high and low records may vary slightly from our data, if they occured in-between our weather recording intervals... More about our weather records

Advertising

Nikšić weather history for previous 24 hours

 ConditionsComfort  
Time TempWeatherWind HumidityBarometerVisibility
2:00 PM
Mon, Mar 2
42 °FOvercast.2 mph98%30.07 "Hg12 mi
1:00 PM42 °FLight rain. Overcast.6 mph100%30.08 "Hg0 mi
12:00 PM42 °FOvercast.6 mph99%30.10 "Hg9 mi
11:00 AM41 °FOvercast.2 mph99%30.11 "Hg11 mi
10:00 AM39 °FOvercast.2 mph100%30.14 "Hg12 mi
9:00 AM39 °FOvercast.1 mph100%30.15 "Hg12 mi
8:00 AM36 °FOvercast.1 mph100%30.15 "Hg12 mi
6:00 AM36 °FOvercast.2 mph99%30.15 "Hg12 mi
5:00 AM36 °FPassing clouds.2 mph98%30.14 "Hg12 mi
4:00 AM35 °FPassing clouds.1 mph99%30.14 "Hg9 mi
1:00 AM37 °FPassing clouds.1 mph100%30.15 "Hg12 mi
10:00 PM
Sun, Mar 1
41 °FPassing clouds.1 mph100%30.12 "Hg12 mi
9:00 PM41 °FPassing clouds.2 mph99%30.10 "Hg12 mi
8:00 PM42 °FOvercast.2 mph99%30.09 "Hg12 mi
7:00 PM43 °FOvercast.2 mph100%30.08 "Hg12 mi
6:00 PM44 °FOvercast.3 mph100%30.06 "Hg12 mi
5:00 PM45 °FPartly sunny.3 mph100%30.04 "Hg12 mi
4:00 PM45 °FOvercast.3 mph100%30.04 "Hg12 mi
Weather by CustomWeather, © 2015

See weather overviewHow to use our weather pages